Location: Burla
(50.9568°N, 10.4983°E)
Time: 16:55:41
(UTC+00:00)

Cosmos 2082 Rocket - Pass Details

Date: 18 January 2026
Orbit: 831 x 853 km, 71.0° (Epoch: 16 February)

Event Time Altitude Azimuth Distance (km) Brightness Sun altitude
Exits shadow 05:53:52 14° 306° (NW) 2,169 3.7 -11.9°
Maximum altitude 05:57:36 28° 256° (WSW) 1,536 3.1 -11.4°
Drops below altitude 10° 06:02:21 10° 199° (SSW) 2,471 4.7 -10.7°
Sets 06:05:06 0° 188° (S) 3,404 5.5 -10.3°
